Regional Weather Roundup
Issued by NWS

Home | Current Version | Previous Version | Text Only | Print | Product List | Glossary Off
Versions: 1 2 3 4 5 6 7 8 9 10 11 12 13 14 15 16 17 18 19 20 21 22 23 24 25 26 27 28 29 30 31 32 33 34 35 36 37 38 39 40 41 42 43 44 45 46 47 48 49 50

000
ASUS45 KPSR 030410
RWRAZ

ARIZONA REGIONAL HOURLY WEATHER ROUNDUP
NATIONAL WEATHER SERVICE PHOENIX AZ
900 PM MST MON MAR 02 2015

NOTE: FAIR INDICATES FEW OR NO CLOUDS BELOW 12,000 FEET WITH NO
SIGNIFICANT WEATHER AND/OR OBSTRUCTIONS TO VISIBILITY.

AZZ001>003-036-030500-
NORTHWEST ARIZONA

CITY           SKY/WX    TMP DP  RH WIND       PRES   REMARKS
BULLHEAD CITY  FAIR      55  43  62 S7        29.95R
KINGMAN        FAIR      40  35  83 SE6       29.94R
$$

AZZ004>008-015-016-018-030500-
NORTH CENTRAL ARIZONA

CITY           SKY/WX    TMP DP  RH WIND       PRES   REMARKS
GRAND CANYON   CLOUDY    29  27  92 SW15      29.93R WCI  18
PRESCOTT       LGT RAIN  37  32  82 W6        29.98R WCI  32
FLAGSTAFF      SNOW      29  27  92 SW9       29.95S VSB 1/2 WCI  20
PAYSON         CLOUDY    36  36 100 CALM      30.03R
PAGE           FAIR      41  29  62 S6        29.89R
$$

AZZ009>014-017-030500-
NORTHEAST ARIZONA

CITY           SKY/WX    TMP DP  RH WIND       PRES   REMARKS
WINSLOW        FAIR      37  32  82 E6        29.98R WCI  32
SAINT JOHNS    FAIR     N/A N/A N/A W9        29.99S
WINDOW ROCK    CLOUDY    33  28  81 SW10      29.96R WCI  25
SHOW LOW       LGT SNOW  32  28  86 S16       30.01F WCI  21
$$

AZZ023-030500-
GREATER PHOENIX AREA

CITY           SKY/WX    TMP DP  RH WIND       PRES   REMARKS
PHOENIX        MOCLDY    52  48  86 SE7       29.99R
BUCKEYE        CLOUDY    50  50 100 SE5       30.00R
LUKE AFB       MOCLDY    53  49  86 NE6       29.99R
DEER VALLEY    FAIR      49  46  90 NE3       29.99R
SCOTTSDALE     FAIR      50  45  83 CALM      30.01R
MESA-GATEWAY   MOCLDY    48  46  93 SE7       30.02R
CHANDLER       PTCLDY    52  48  87 E9        30.00R
$$

AZZ027-028-030500-
SOUTHWEST MARICOPA COUNTY AND PINAL COUNTY

CITY           SKY/WX    TMP DP  RH WIND       PRES   REMARKS
CASA GRANDE    FAIR      50  45  81 E7        30.00S
GILA BEND      PTCLDY    53  50  89 E2        29.98R
$$

AZZ503-504-507>509-030500-
SOUTHEAST ARIZONA

CITY           SKY/WX    TMP DP  RH WIND       PRES   REMARKS
TUCSON         CLOUDY    52  48  86 E7        30.03R
DAVIS-MONTHAN  CLOUDY    51  50  96 E6        30.01R
NOGALES        LGT RAIN  49  46  90 NW3       30.02R
SIERRA VISTA   LGT RAIN  48  48 100 N5        30.01R
DOUGLAS        CLOUDY    56  45  66 S12G20    30.00S
SAFFORD        LGT RAIN  48  41  76 NW15      30.01R
$$

AZZ020-021-025-026-031-030500-
SOUTHWEST ARIZONA

CITY           SKY/WX    TMP DP  RH WIND       PRES   REMARKS
YUMA           LGT RAIN  59  45  59 N3        29.97R
$$

CAZ031-033-041-043-047-048-061-030500-
SOUTHERN CALIFORNIA

CITY           SKY/WX    TMP DP  RH WIND       PRES   REMARKS
DOWNTOWN L.A.  FAIR      55  46  71 SE3       29.96R
L.A. AIRPORT   FAIR      55  44  66 E5        29.96R
SAN DIEGO      FAIR      58  44  60 CALM      29.99S
BURBANK        FAIR      53  43  68 E3        29.95R
ONTARIO        MOCLDY    51  41  68 W5        29.96R
RIVERSIDE      MOCLDY    51  43  74 SE3       29.97R
PALM SPRINGS   FAIR      53  44  71 CALM      29.96R
EL CENTRO NAS  FAIR      56  43  61 W10       29.96R
IMPERIAL       MOCLDY    57  43  59 W6        29.96R
BLYTHE         FAIR      54  45  71 S5        29.94R
NEEDLES        FAIR      55  41  59 S5        29.93R
$$

NVZ020-UTZ003-030500-
SOUTHERN NEVADA-UTAH

CITY           SKY/WX    TMP DP  RH WIND       PRES   REMARKS
LAS VEGAS      FAIR      49  35  58 SW6       29.86R
SALT LAKE CITY LGT RAIN  34  33  96 NW9       29.75R WCI  27
$$

NMZ009-TXZ055-030500-
NEW MEXICO-WEST TEXAS

CITY           SKY/WX    TMP DP  RH WIND       PRES   REMARKS
ALBUQUERQUE    CLOUDY    51  42  71 S20G31    29.91R
EL PASO        CLOUDY    60  46  59 SW10      29.97S
$$


........................KEY........................
SKY/WX - SKY CONDITION/WEATHER
TMP    - TEMPERATURE IN FAHRENHEIT
DP     - DEW POINT IN FAHRENHEIT
RH     - RELATIVE HUMIDITY IN PERCENT
WIND   - DIRECTION AND SPEED IN MILES PER HOUR (MPH)
VRB    - VARIABLE WIND DIRECTION
PRES   - MEAN SEA LEVEL PRESSURE IN INCHES OF MERCURY
         F - FALLING PRESSURE   R - RISING PRESSURE
         S - STEADY PRESSURE
VSB    - VISIBILITY IN MILES
HX     - HEAT INDEX IN FAHRENHEIT
WCI    - WIND CHILL INDEX IN FAHRENHEIT
TC     - TEMPERATURE IN CELSIUS WHICH IS ALSO KNOWN AS
         TEMPERATURE IN CENTIGRADE
AFB    - AIR FORCE BASE
         LUKE AFB IS LUKE AIR FORCE BASE
         DAVIS-MONTHAN IS DAVIS-MONTHAN AIR FORCE BASE
NAS    - NAVAL AIR STATION
         EL CENTRO NAS IS EL CENTRO NAVAL AIR STATION
N/A    - NOT AVAILABLE


USA.gov is the U.S. government's official web portal to all federal, state and local government web resources and services.